STARLINK-11636 [DTC] (63194 NORAD) Tracking and Keplerian Element Data

This shows tracking and keplerian element data for the satellite.

Feedback or suggestion? Click here.




ElementValue
Catalog63194
NameSTARLINK-11636 [DTC]
Epoch Orbit4593
Epoch Day353.66584627
Epoch Year2025
RAAN82.419
Inclination43.0017
Eccentricity0.0001848
Argument of Perigee262.6564
Mean Anonmoly97.4094
Mean Motion15.70867925
Decay Rate0.0009471
L11 63194U 25048M 25353.66584627 .00094710 00000+0 73233-3 0 9995
L22 63194 43.0017 82.4190 0001848 262.6564 97.4094 15.70867925 45930



Live tracking and technical data element details for STARLINK-11636 [DTC] (NORAD 63194). STARLINK-11636 [DTC] can be tracked NOW for your location showing map with azimuth and elevation plus other details from your city location.







IsCatalogInMostPopularTable: catalog: 63194, numindb: 9
Update: records affected: 1



GetName: 63194 STARLINK-11636 [DTC]

Hit Count: updated at: Thu, 21 May 2026 11:11:46 GMT